Regional Weather Roundup
Issued by NWS State College, PA

Home | Current Version | Previous Version | Text Only | Print | Product List | Glossary Off
Versions: 1 2 3 4 5 6 7 8 9 10 11 12 13 14 15 16 17 18 19 20 21 22 23 24 25 26 27 28 29 30 31 32 33 34 35 36 37 38 39 40 41 42 43 44 45 46 47 48 49 50

000
ASUS41 KCTP 250203
RWRCTP

REGIONAL WEATHER ROUNDUP
NATIONAL WEATHER SERVICE STATE COLLEGE PA
900 PM EST WED DEC 24 2014

Note: "fair" indicates few or no clouds below 12,000 feet with no
significant weather and/or obstructions to visibility.

* = STATION THAT DOES NOT REPORT PRECIPITATION /E.G. RAIN...SNOW...ETC/
    THUNDER OR FOG.

PAZ002>004-007>009-013>016-020>023-029>032-250300-
WESTERN PENNSYLVANIA

CITY           SKY/WX    TMP DP  RH WIND       PRES   REMARKS
ERIE           LGT RAIN  54  48  80 SW15G43   29.30R
MEADVILLE      LGT RAIN  52  46  80 SW15G38   29.34R
FRANKLIN*      CLOUDY    52  46  82 S28G44    29.37R
NEW CASTLE     RAIN      51  47  86 SW17G43   29.41R FOG
BEAVER COUNTY  NOT AVBL
BUTLER*        CLOUDY    52  45  76 SW29G40   29.44R
PITTSBURGH INT CLOUDY    51  46  83 W17G29    29.43R
PITTSBURGH     CLOUDY    51  43  74 W31G41    29.43R
INDIANA*       MOCLDY    57  50  77 S13       29.40F
LATROBE        MOCLDY    63  52  67 S9          N/A
WASHINGTON CO* NOT AVBL
$$

PAZ004>006-010>012-017>019-024>028-033>037-041-042-045-046-049>053-250300-
CENTRAL PENNSYLVANIA

CITY           SKY/WX    TMP DP  RH WIND       PRES   REMARKS
BRADFORD       CLOUDY    49  45  86 S14G21    29.35F
DUBOIS         CLOUDY    50  46  86 SE10      29.36F
CLEARFIELD     CLOUDY    46  46 100 N6        29.42F FOG
JOHNSTOWN      CLOUDY    53  49  86 S15G23    29.42F
ALTOONA        CLOUDY    46  45  96 CALM      29.46F FOG
STATE COLLEGE  CLOUDY    48  46  93 NW7       29.45F
WILLIAMSPORT   CLOUDY    51  48  89 E13       29.49F
SELINSGROVE    CLOUDY    50  49  96 SW5       29.52F FOG
FT INDIANTOWN  FOG       49  49  99 N3        29.55F VSB 1/4
CAPITAL CITY   CLOUDY    48  47  96 CALM      29.54F FOG
HARRISBURG     CLOUDY    49  48  97 SE6       29.53F FOG
YORK           LGT RAIN  52  51  97 CALM      29.54F FOG
$$

PAZ038>040-043-044-047-048-054-055-060>062-067>071-250300-
EASTERN PENNSYLVANIA

CITY           SKY/WX    TMP DP  RH WIND       PRES   REMARKS
SCRANTON       CLOUDY    56  53  90 VRB7      29.51F
MOUNT POCONO   FOG       52  51  97 S9        29.54F VSB 1/4
ALLENTOWN      FOG       51  49  92 CALM      29.57F VSB 3/4
QUAKERTOWN*    NOT AVBL
READING        CLOUDY    56  54  93 CALM      29.57S
LANCASTER      NOT AVBL
COATESVILLE    CLOUDY    57  57 100 S7        29.59F FOG
POTTSTOWN      CLOUDY    58  56  93 S7        29.59F
BLUE BELL      CLOUDY    63  61  94 SW8       29.59R
DOYLESTOWN     CLOUDY    60  60 100 SW9       29.58S
WILLOW GROVE   NOT AVBL
NORTH PHILA    CLOUDY    63  59  87 SW6       29.61F
PHILADELPHIA   CLOUDY    61  59  93 S10       29.60F
$$


USA.gov is the U.S. government's official web portal to all federal, state and local government web resources and services.